Location: Newark
(13.6797°N, 8.5297°E)
Time: 03:28:08
(UTC+00:00)

Courier 1B Rocket - Pass Details

Date: 21 January 2020
Orbit: 920 x 1202 km, 28.2° (Epoch: 17 February)

Event Time Altitude Azimuth Distance (km) Brightness Sun altitude
Rises 11:03:36 0° 254° (WSW) 3,944 8.2 55.4°
Reaches altitude 10° 11:06:30 10° 257° (WSW) 2,944 7.6 55.5°
Maximum altitude 11:13:35 59° 336° (NNW) 1,182 5.9 55.9°
Drops below altitude 10° 11:20:09 10° 55° (NE) 2,738 7.3 56.1°
Sets 11:22:47 0° 59° (ENE) 3,651 7.9 56.2°
